,,Stat6,,Stat2,,Stat8,,Stat9,,Stat10,,Wind1,,Wind1,
time,status,PA1M_AVG,status,PR1M_SUM,status,RH1M_AVG,status,SR1M_AVG,status,TA1M_AVG,status,W1dAve1m,status,W1sAve1m,
2004-09-06, 00:00:00,VALID,918.588,VALID,0,VALID,100,VALID,0,VALID,18.9603,VALID,74,VALID,0,
2004-09-06, 00:01:00,VALID,918.558,VALID,0,VALID,100,VALID,0.0169808,VALID,18.9504,VALID,74,VALID,0,
2004-09-06, 00:02:00,VALID,918.533,VALID,0,VALID,100,VALID,0,VALID,18.9407,VALID,93,VALID,0.374645,
2004-09-06, 00:03:00,VALID,918.504,VALID,0,VALID,100,VALID,0.0169808,VALID,18.931,VALID,134,VALID,0.561942,
2004-09-06, 00:04:00,VALID,918.49,VALID,0,VALID,100,VALID,0.0169808,VALID,18.9534,VALID,145,VALID,0.919829,
2004-09-06, 00:05:00,VALID,918.48,VALID,0,VALID,100,VALID,0.0339617,VALID,18.9986,VALID,145,VALID,0.982031,
2004-09-06, 00:06:00,VALID,918.479,VALID,0,VALID,100,VALID,0,VALID,19.0415,VALID,149,VALID,0.987305,
2004-09-06, 00:07:00,VALID,918.463,VALID,0,VALID,100,VALID,0,VALID,19.047,VALID,140,VALID,0.873476,
2004-09-06, 00:08:00,VALID,918.465,VALID,0,VALID,100,VALID,0,VALID,19.0731,VALID,135,VALID,0.636039,
2004-09-06, 00:09:00,VALID,918.443,VALID,0,VALID,100,VALID,0.0169808,VALID,19.0765,VALID,140,VALID,0.820313,
2004-09-06, 00:10:00,VALID,918.437,VALID,0,VALID,100,VALID,0,VALID,19.0828,VALID,141,VALID,0.724826,
2004-09-06, 00:11:00,VALID,918.424,VALID,0,VALID,100,VALID,0,VALID,19.0768,VALID,133,VALID,0.938301,
2004-09-06, 00:12:00,VALID,918.408,VALID,0,VALID,100,VALID,0,VALID,19.0671,VALID,116,VALID,0.858842,
2004-09-06, 00:13:00,VALID,918.384,VALID,0,VALID,100,VALID,0,VALID,19.0604,VALID,118,VALID,0.945884,
2004-09-06, 00:14:00,VALID,918.368,VALID,0,VALID,100,VALID,0,VALID,19.0736,VALID,120,VALID,1.01972,
2004-09-06, 00:15:00,VALID,918.341,VALID,0,VALID,100,VALID,-0.0169808,VALID,19.0641,VALID,131,VALID,0.9016,
2004-09-06, 00:16:00,VALID,918.336,VALID,0,VALID,100,VALID,0,VALID,19.0477,VALID,130,VALID,1.06094,
2004-09-06, 00:17:00,VALID,918.348,VALID,0,VALID,100,VALID,-0.0169808,VALID,19.048,VALID,138,VALID,1.13512,
2004-09-06, 00:18:00,VALID,918.35,VALID,0,VALID,100,VALID,-0.0169808,VALID,19.0316,VALID,141,VALID,1.05004,
2004-09-06, 00:19:00,VALID,918.364,VALID,0,VALID,100,VALID,0,VALID,19.0219,VALID,126,VALID,0.804116,
2004-09-06, 00:20:00,VALID,918.377,VALID,0,VALID,100,VALID,0,VALID,19.012,VALID,132,VALID,0.6163,
2004-09-06, 00:21:00,VALID,918.375,VALID,0,VALID,100,VALID,-0.0169808,VALID,19.0092,VALID,137,VALID,0.507631,
2004-09-06, 00:22:00,VALID,918.372,VALID,0,VALID,100,VALID,0,VALID,19.012,VALID,133,VALID,0.44436,
2004-09-06, 00:23:00,VALID,918.363,VALID,0,VALID,100,VALID,0,VALID,19.0217,VALID,128,VALID,0.578299,
2004-09-06, 00:24:00,VALID,918.337,VALID,0,VALID,100,VALID,0,VALID,19.038,VALID,127,VALID,0.524306,
2004-09-06, 00:25:00,VALID,918.325,VALID,0,VALID,100,VALID,0,VALID,19.0445,VALID,127,VALID,0.415334,
2004-09-06, 00:26:00,VALID,918.31,VALID,0,VALID,100,VALID,-0.0169808,VALID,19.0579,VALID,130,VALID,0.630485,
2004-09-06, 00:27:00,VALID,918.293,VALID,0,VALID,100,VALID,0,VALID,19.0606,VALID,138,VALID,0.755632,
2004-09-06, 00:28:00,VALID,918.271,VALID,0,VALID,100,VALID,0,VALID,19.0862,VALID,142,VALID,0.735102,
2004-09-06, 00:29:00,VALID,918.248,VALID,0,VALID,100,VALID,0,VALID,19.1024,VALID,140,VALID,0.518895,
2004-09-06, 00:30:00,VALID,918.219,VALID,0,VALID,100,VALID,0,VALID,19.1153,VALID,140,VALID,0.497456,
2004-09-06, 00:31:00,VALID,918.194,VALID,0,VALID,100,VALID,0,VALID,19.1354,VALID,127,VALID,0.532738,
2004-09-06, 00:32:00,VALID,918.157,VALID,0,VALID,100,VALID,0,VALID,19.1312,VALID,120,VALID,0.566315,
2004-09-06, 00:33:00,VALID,918.148,VALID,0,VALID,100,VALID,0,VALID,19.1409,VALID,121,VALID,0.596726,
2004-09-06, 00:34:00,VALID,918.131,VALID,0,VALID,100,VALID,0,VALID,19.1476,VALID,121,VALID,0.522195,
2004-09-06, 00:35:00,VALID,918.118,VALID,0,VALID,100,VALID,0,VALID,19.1473,VALID,121,VALID,0.541061,
2004-09-06, 00:36:00,VALID,918.082,VALID,0,VALID,100,VALID,0,VALID,19.1441,VALID,121,VALID,0.679506,
2004-09-06, 00:37:00,VALID,918.051,VALID,0,VALID,100,VALID,0,VALID,19.1607,VALID,125,VALID,0.560826,
2004-09-06, 00:38:00,VALID,918.035,VALID,0,VALID,100,VALID,0,VALID,19.1372,VALID,113,VALID,0.784598,
2004-09-06, 00:39:00,VALID,918.016,VALID,0,VALID,100,VALID,0,VALID,19.151,VALID,117,VALID,0.831836,
2004-09-06, 00:40:00,VALID,918.007,VALID,0,VALID,100,VALID,0,VALID,19.1411,VALID,126,VALID,0.773624,
2004-09-06, 00:41:00,VALID,917.983,VALID,0,VALID,100,VALID,0,VALID,19.1575,VALID,127,VALID,0.580611,
2004-09-06, 00:42:00,VALID,917.969,VALID,0,VALID,100,VALID,0,VALID,19.1679,VALID,127,VALID,0.745206,
2004-09-06, 00:43:00,VALID,917.949,VALID,0,VALID,100,VALID,0,VALID,19.1672,VALID,127,VALID,0.613991,
2004-09-06, 00:44:00,VALID,917.941,VALID,0,VALID,100,VALID,0,VALID,19.154,VALID,126,VALID,0.444097,
2004-09-06, 00:45:00,VALID,917.921,VALID,0,VALID,100,VALID,-0.0169808,VALID,19.1575,VALID,127,VALID,0.421693,
2004-09-06, 00:46:00,VALID,917.918,VALID,0,VALID,100,VALID,-0.0169808,VALID,19.151,VALID,128,VALID,0.361979,
2004-09-06, 00:47:00,VALID,917.91,VALID,0,VALID,100,VALID,0,VALID,19.1577,VALID,135,VALID,0.358467,
2004-09-06, 00:48:00,VALID,917.896,VALID,0,VALID,100,VALID,0.0169808,VALID,19.1478,VALID,140,VALID,0.509615,
2004-09-06, 00:49:00,VALID,917.871,VALID,0,VALID,100,VALID,-0.0679233,VALID,19.1411,VALID,142,VALID,0.443182,
2004-09-06, 00:50:00,VALID,917.858,VALID,0,VALID,100,VALID,0,VALID,19.1575,VALID,142,VALID,0.583212,
2004-09-06, 00:51:00,VALID,917.836,VALID,0,VALID,100,VALID,0,VALID,19.196,VALID,142,VALID,0.515434,
2004-09-06, 00:52:00,VALID,917.818,VALID,0,VALID,100,VALID,0,VALID,19.2281,VALID,142,VALID,0.194404,
2004-09-06, 00:53:00,VALID,917.811,VALID,0,VALID,100,VALID,-0.0169808,VALID,19.2412,VALID,136,VALID,0.344295,
2004-09-06, 00:54:00,VALID,917.797,VALID,0,VALID,100,VALID,0,VALID,19.235,VALID,132,VALID,0.349023,
2004-09-06, 00:55:00,VALID,917.787,VALID,0,VALID,100,VALID,0.0169808,VALID,19.2159,VALID,129,VALID,0.411776,
2004-09-06, 00:56:00,VALID,917.797,VALID,0,VALID,100,VALID,0,VALID,19.2087,VALID,118,VALID,0.50327,
2004-09-06, 00:57:00,VALID,917.77,VALID,0,VALID,100,VALID,-0.0169808,VALID,19.2216,VALID,90,VALID,0.639205,
2004-09-06, 00:58:00,VALID,917.751,VALID,0,VALID,100,VALID,0,VALID,19.2186,VALID,76,VALID,0.911701,
2004-09-06, 00:59:00,VALID,917.74,VALID,0,VALID,100,VALID,0,VALID,19.2251,VALID,72,VALID,0.826601,
2004-09-06, 01:00:00,VALID,917.717,VALID,0,VALID,100,VALID,0,VALID,19.2479,VALID,76,VALID,0.851215,
2004-09-06, 01:01:00,VALID,917.727,VALID,0,VALID,100,VALID,-0.0339617,VALID,19.2606,VALID,82,VALID,0.785974,
2004-09-06, 01:02:00,VALID,917.717,VALID,0,VALID,100,VALID,0,VALID,19.2698,VALID,100,VALID,0.776344,
2004-09-06, 01:03:00,VALID,917.718,VALID,0,VALID,100,VALID,0,VALID,19.2956,VALID,102,VALID,0.731148,
2004-09-06, 01:04:00,VALID,917.7,VALID,0,VALID,100,VALID,0.0169808,VALID,19.2988,VALID,103,VALID,0.589026,
2004-09-06, 01:05:00,VALID,917.701,VALID,0,VALID,100,VALID,0,VALID,19.2795,VALID,109,VALID,0.574314,
2004-09-06, 01:06:00,VALID,917.703,VALID,0,VALID,100,VALID,0,VALID,19.2444,VALID,113,VALID,0.504542,
2004-09-06, 01:07:00,VALID,917.692,VALID,0,VALID,100,VALID,0,VALID,19.2184,VALID,94,VALID,0.2258,
2004-09-06, 01:08:00,VALID,917.693,VALID,0,VALID,100,VALID,0,VALID,19.1603,VALID,86,VALID,0.494851,
2004-09-06, 01:09:00,VALID,917.673,VALID,0,VALID,100,VALID,0,VALID,19.1247,VALID,77,VALID,0.734557,
2004-09-06, 01:10:00,VALID,917.664,VALID,0,VALID,100,VALID,0,VALID,19.1183,VALID,83,VALID,0.458274,
2004-09-06, 01:11:00,VALID,917.645,VALID,0,VALID,100,VALID,0,VALID,19.0897,VALID,65,VALID,0.613095,
2004-09-06, 01:12:00,VALID,917.64,VALID,0,VALID,100,VALID,0.0169808,VALID,19.0341,VALID,69,VALID,0.601017,
2004-09-06, 01:13:00,VALID,917.617,VALID,0,VALID,100,VALID,-0.0169808,VALID,19.0187,VALID,64,VALID,0.630526,
2004-09-06, 01:14:00,VALID,917.603,VALID,0,VALID,100,VALID,-0.0169808,VALID,19.0092,VALID,63,VALID,0.637767,
2004-09-06, 01:15:00,VALID,917.604,VALID,0,VALID,100,VALID,0,VALID,18.9924,VALID,60,VALID,0.377778,
2004-09-06, 01:16:00,VALID,917.624,VALID,0,VALID,100,VALID,0,VALID,18.9792,VALID,60,VALID,0.19436,
2004-09-06, 01:17:00,VALID,917.621,VALID,0,VALID,100,VALID,0.0169808,VALID,18.9539,VALID,60,VALID,0.11447,
2004-09-06, 01:18:00,VALID,917.628,VALID,0,VALID,100,VALID,-0.0169808,VALID,18.9345,VALID,60,VALID,0,
2004-09-06, 01:19:00,VALID,917.619,VALID,0,VALID,100,VALID,0,VALID,18.9149,VALID,50,VALID,0.187863,
2004-09-06, 01:20:00,VALID,917.609,VALID,0,VALID,100,VALID,0,VALID,18.9017,VALID,14,VALID,0.322656,
2004-09-06, 01:21:00,VALID,917.603,VALID,0,VALID,100,VALID,0,VALID,18.905,VALID,10,VALID,0.397104,
2004-09-06, 01:22:00,VALID,917.594,VALID,0,VALID,100,VALID,-0.0169808,VALID,18.9347,VALID,325,VALID,0.597284,
2004-09-06, 01:23:00,VALID,917.573,VALID,0,VALID,100,VALID,-0.0169808,VALID,18.9541,VALID,296,VALID,0.431784,
2004-09-06, 01:24:00,VALID,917.579,VALID,0,VALID,100,VALID,-0.0339617,VALID,18.9472,VALID,295,VALID,0.344769,
2004-09-06, 01:25:00,VALID,917.556,VALID,0,VALID,100,VALID,0,VALID,18.9541,VALID,292,VALID,0.426829,
2004-09-06, 01:26:00,VALID,917.537,VALID,0,VALID,100,VALID,0,VALID,18.9412,VALID,292,VALID,0.263393,
2004-09-06, 01:27:00,VALID,917.519,VALID,0,VALID,100,VALID,0.0169808,VALID,18.928,VALID,292,VALID,0.0102307,
2004-09-06, 01:28:00,VALID,917.507,VALID,0,VALID,100,VALID,-0.0509425,VALID,18.932,VALID,292,VALID,0,
2004-09-06, 01:29:00,VALID,917.496,VALID,0,VALID,100,VALID,0,VALID,18.9054,VALID,292,VALID,0,
2004-09-06, 01:30:00,VALID,917.495,VALID,0,VALID,100,VALID,0,VALID,18.8928,VALID,292,VALID,0,
2004-09-06, 01:31:00,VALID,917.492,VALID,0,VALID,100,VALID,0,VALID,18.8376,VALID,292,VALID,0,
2004-09-06, 01:32:00,VALID,917.491,VALID,0,VALID,100,VALID,0,VALID,18.7765,VALID,292,VALID,0,
2004-09-06, 01:33:00,VALID,917.493,VALID,0,VALID,100,VALID,-0.0169808,VALID,18.7279,VALID,292,VALID,0,
2004-09-06, 01:34:00,VALID,917.471,VALID,0,VALID,100,VALID,0,VALID,18.6956,VALID,292,VALID,0.0758929,
2004-09-06, 01:35:00,VALID,917.456,VALID,0,VALID,100,VALID,-0.0169808,VALID,18.6571,VALID,292,VALID,0,
2004-09-06, 01:36:00,VALID,917.449,VALID,0,VALID,100,VALID,-0.0169808,VALID,18.6054,VALID,292,VALID,0,
2004-09-06, 01:37:00,VALID,917.433,VALID,0,VALID,100,VALID,0,VALID,18.5503,VALID,292,VALID,0,
2004-09-06, 01:38:00,VALID,917.43,VALID,0,VALID,100,VALID,0,VALID,18.4954,VALID,293,VALID,0.102344,
2004-09-06, 01:39:00,VALID,917.404,VALID,0,VALID,100,VALID,0,VALID,18.4281,VALID,324,VALID,0.409268,
2004-09-06, 01:40:00,VALID,917.399,VALID,0,VALID,100,VALID,-0.0169808,VALID,18.3082,VALID,22,VALID,0.46875,
2004-09-06, 01:41:00,VALID,917.391,VALID,0,VALID,100,VALID,0,VALID,18.2861,VALID,24,VALID,0.410633,
2004-09-06, 01:42:00,VALID,917.369,VALID,0,VALID,100,VALID,0,VALID,18.257,VALID,26,VALID,0.419744,
2004-09-06, 01:43:00,VALID,917.364,VALID,0,VALID,100,VALID,-0.0339617,VALID,18.2508,VALID,26,VALID,0.42702,
2004-09-06, 01:44:00,VALID,917.364,VALID,0,VALID,100,VALID,0,VALID,18.2446,VALID,26,VALID,0.20827,
2004-09-06, 01:45:00,VALID,917.358,VALID,0,VALID,100,VALID,0,VALID,18.1957,VALID,26,VALID,0.215116,
2004-09-06, 01:46:00,VALID,917.346,VALID,0,VALID,100,VALID,-0.0169808,VALID,18.1632,VALID,26,VALID,0.201823,
2004-09-06, 01:47:00,VALID,917.339,VALID,0,VALID,100,VALID,-0.0169808,VALID,18.1636,VALID,26,VALID,0.284489,
2004-09-06, 01:48:00,VALID,917.323,VALID,0,VALID,100,VALID,0,VALID,18.124,VALID,25,VALID,0.172266,
2004-09-06, 01:49:00,VALID,917.32,VALID,0,VALID,100,VALID,-0.0169808,VALID,18.0892,VALID,26,VALID,0.284157,
2004-09-06, 01:50:00,VALID,917.31,VALID,0,VALID,100,VALID,-0.0679233,VALID,18.103,VALID,26,VALID,0.362305,
2004-09-06, 01:51:00,VALID,917.303,VALID,0,VALID,100,VALID,0,VALID,18.1152,VALID,27,VALID,0.459666,
2004-09-06, 01:52:00,VALID,917.289,VALID,0,VALID,100,VALID,0,VALID,18.1281,VALID,45,VALID,0.557422,
2004-09-06, 01:53:00,VALID,917.292,VALID,0,VALID,100,VALID,0.0169808,VALID,18.1636,VALID,78,VALID,0.581499,
2004-09-06, 01:54:00,VALID,917.285,VALID,0,VALID,100,VALID,0,VALID,18.1766,VALID,100,VALID,0.64881,
2004-09-06, 01:55:00,VALID,917.279,VALID,0,VALID,100,VALID,0,VALID,18.222,VALID,90,VALID,0.627858,
2004-09-06, 01:56:00,VALID,917.255,VALID,0,VALID,100,VALID,-0.0169808,VALID,18.2284,VALID,85,VALID,0.809126,
2004-09-06, 01:57:00,VALID,917.255,VALID,0,VALID,100,VALID,0,VALID,18.2252,VALID,69,VALID,0.990589,
2004-09-06, 01:58:00,VALID,917.258,VALID,0,VALID,100,VALID,-0.0169808,VALID,18.2054,VALID,67,VALID,1.05959,
2004-09-06, 01:59:00,VALID,917.263,VALID,0,VALID,100,VALID,0,VALID,18.2153,VALID,69,VALID,0.981957,
2004-09-06, 02:00:00,VALID,917.266,VALID,0,VALID,100,VALID,0,VALID,18.2342,VALID,83,VALID,0.967988,
2004-09-06, 02:01:00,VALID,917.249,VALID,0,VALID,100,VALID,-0.0169808,VALID,18.2764,VALID,78,VALID,1.08798,
2004-09-06, 02:02:00,VALID,917.247,VALID,0,VALID,100,VALID,-0.0169808,VALID,18.2992,VALID,72,VALID,1.05017,
2004-09-06, 02:03:00,VALID,917.229,VALID,0,VALID,100,VALID,0,VALID,18.2967,VALID,66,VALID,1.14348,
2004-09-06, 02:04:00,VALID,917.227,VALID,0,VALID,100,VALID,0,VALID,18.2865,VALID,62,VALID,1.15394,
2004-09-06, 02:05:00,VALID,917.22,VALID,0,VALID,100,VALID,-0.0169808,VALID,18.2898,VALID,62,VALID,0.961846,
2004-09-06, 02:06:00,VALID,917.224,VALID,0,VALID,100,VALID,0,VALID,18.2967,VALID,75,VALID,0.837713,
2004-09-06, 02:07:00,VALID,917.215,VALID,0,VALID,100,VALID,0,VALID,18.2803,VALID,93,VALID,0.949219,
2004-09-06, 02:08:00,VALID,917.211,VALID,0,VALID,100,VALID,0,VALID,18.2801,VALID,98,VALID,0.864062,
2004-09-06, 02:09:00,VALID,917.228,VALID,0,VALID,100,VALID,-0.0509425,VALID,18.2448,VALID,125,VALID,0.897917,
2004-09-06, 02:10:00,VALID,917.241,VALID,0,VALID,100,VALID,0.0509425,VALID,18.1952,VALID,135,VALID,1.39595,
2004-09-06, 02:11:00,VALID,917.233,VALID,0,VALID,100,VALID,0.0679233,VALID,18.2367,VALID,121,VALID,1.17344,
2004-09-06, 02:12:00,VALID,917.221,VALID,0,VALID,100,VALID,0.0849042,VALID,18.2464,VALID,121,VALID,1.0554,
2004-09-06, 02:13:00,VALID,917.184,VALID,0,VALID,100,VALID,0.101885,VALID,18.3114,VALID,125,VALID,1.18312,
2004-09-06, 02:14:00,VALID,917.157,VALID,0,VALID,100,VALID,0.0849042,VALID,18.411,VALID,126,VALID,1.13635,
2004-09-06, 02:15:00,VALID,917.125,VALID,0,VALID,100,VALID,0.0679233,VALID,18.4657,VALID,128,VALID,1.03848,
2004-09-06, 02:16:00,VALID,917.115,VALID,0,VALID,100,VALID,0.0849042,VALID,18.4786,VALID,127,VALID,1.0971,
2004-09-06, 02:17:00,VALID,917.096,VALID,0,VALID,100,VALID,0.101885,VALID,18.5402,VALID,128,VALID,1.46914,
2004-09-06, 02:18:00,VALID,917.088,VALID,0,VALID,100,VALID,0.101885,VALID,18.5789,VALID,118,VALID,0.955529,
2004-09-06, 02:19:00,VALID,917.074,VALID,0,VALID,100,VALID,0.101885,VALID,18.5955,VALID,115,VALID,1.26116,
2004-09-06, 02:20:00,VALID,917.062,VALID,0,VALID,100,VALID,0.0849042,VALID,18.6047,VALID,92,VALID,0.960029,
2004-09-06, 02:21:00,VALID,917.056,VALID,0,VALID,100,VALID,0.0849042,VALID,18.5757,VALID,79,VALID,0.860828,
2004-09-06, 02:22:00,VALID,917.062,VALID,0.2,VALID,100,VALID,0.101885,VALID,18.5434,VALID,55,VALID,0.8125,
2004-09-06, 02:23:00,VALID,917.068,VALID,0,VALID,100,VALID,0.101885,VALID,18.5171,VALID,65,VALID,1.01469,
2004-09-06, 02:24:00,VALID,917.064,VALID,0,VALID,100,VALID,0.101885,VALID,18.5275,VALID,57,VALID,1.12024,
2004-09-06, 02:25:00,VALID,917.055,VALID,0,VALID,100,VALID,-0.0679233,VALID,18.5199,VALID,51,VALID,1.01835,
2004-09-06, 02:26:00,VALID,917.046,VALID,0,VALID,100,VALID,-0.101885,VALID,18.501,VALID,52,VALID,1.08631,
2004-09-06, 02:27:00,VALID,917.045,VALID,0,VALID,100,VALID,-0.101885,VALID,18.4844,VALID,62,VALID,1.08168,
2004-09-06, 02:28:00,VALID,917.046,VALID,0,VALID,100,VALID,-0.101885,VALID,18.5005,VALID,78,VALID,1.06364,
2004-09-06, 02:29:00,VALID,917.045,VALID,0,VALID,100,VALID,-0.101885,VALID,18.5169,VALID,62,VALID,0.719131,
2004-09-06, 02:30:00,VALID,917.03,VALID,0,VALID,100,VALID,-0.101885,VALID,18.5298,VALID,80,VALID,0.540451,
2004-09-06, 02:31:00,VALID,917.018,VALID,0,VALID,100,VALID,-0.118866,VALID,18.5621,VALID,124,VALID,1.04161,
2004-09-06, 02:32:00,VALID,917.018,VALID,0,VALID,100,VALID,-0.135847,VALID,18.5983,VALID,120,VALID,0.823509,
2004-09-06, 02:33:00,VALID,917.022,VALID,0,VALID,100,VALID,-0.101885,VALID,18.6073,VALID,108,VALID,0.646205,
2004-09-06, 02:34:00,VALID,917.031,VALID,0,VALID,100,VALID,-0.0679233,VALID,18.6237,VALID,118,VALID,0.694602,
2004-09-06, 02:35:00,VALID,917.029,VALID,0,VALID,100,VALID,-0.101885,VALID,18.6271,VALID,127,VALID,0.794212,
2004-09-06, 02:36:00,VALID,917.031,VALID,0,VALID,100,VALID,-0.0849042,VALID,18.6366,VALID,127,VALID,0.780878,
2004-09-06, 02:37:00,VALID,917.041,VALID,0,VALID,100,VALID,-0.0849042,VALID,18.6488,VALID,132,VALID,0.873224,
2004-09-06, 02:38:00,VALID,917.05,VALID,0,VALID,100,VALID,-0.101885,VALID,18.6714,VALID,143,VALID,1.1359,
2004-09-06, 02:39:00,VALID,917.044,VALID,0,VALID,100,VALID,-0.101885,VALID,18.7203,VALID,149,VALID,1.28072,
2004-09-06, 02:40:00,VALID,917.041,VALID,0,VALID,100,VALID,0.0169808,VALID,18.7482,VALID,151,VALID,0.974609,
2004-09-06, 02:41:00,VALID,917.031,VALID,0,VALID,100,VALID,0,VALID,18.7641,VALID,144,VALID,0.811228,
2004-09-06, 02:42:00,VALID,917.011,VALID,0,VALID,100,VALID,0,VALID,18.7676,VALID,154,VALID,1.03872,
2004-09-06, 02:43:00,VALID,917.007,VALID,0,VALID,100,VALID,0,VALID,18.7676,VALID,149,VALID,0.903054,
2004-09-06, 02:44:00,VALID,916.998,VALID,0,VALID,100,VALID,-0.0169808,VALID,18.7542,VALID,138,VALID,0.924543,
2004-09-06, 02:45:00,VALID,916.976,VALID,0,VALID,100,VALID,0,VALID,18.7507,VALID,144,VALID,0.974432,
2004-09-06, 02:46:00,VALID,916.972,VALID,0,VALID,100,VALID,0.0169808,VALID,18.7279,VALID,141,VALID,0.766555,
2004-09-06, 02:47:00,VALID,916.947,VALID,0,VALID,100,VALID,0.0169808,VALID,18.7283,VALID,135,VALID,0.790039,
2004-09-06, 02:48:00,VALID,916.934,VALID,0,VALID,100,VALID,0,VALID,18.7191,VALID,142,VALID,1.28965,
2004-09-06, 02:49:00,VALID,916.928,VALID,0,VALID,100,VALID,0.0169808,VALID,18.6924,VALID,143,VALID,0.942835,
2004-09-06, 02:50:00,VALID,916.916,VALID,0,VALID,100,VALID,0,VALID,18.6801,VALID,140,VALID,1.26007,
2004-09-06, 02:51:00,VALID,916.908,VALID,0,VALID,100,VALID,0.0169808,VALID,18.6573,VALID,151,VALID,0.990189,
2004-09-06, 02:52:00,VALID,916.909,VALID,0,VALID,100,VALID,0,VALID,18.6412,VALID,133,VALID,0.691679,
2004-09-06, 02:53:00,VALID,916.906,VALID,0,VALID,100,VALID,0.0169808,VALID,18.6285,VALID,152,VALID,1.10714,
2004-09-06, 02:54:00,VALID,916.896,VALID,0,VALID,100,VALID,0.0169808,VALID,18.6317,VALID,154,VALID,0.556445,
2004-09-06, 02:55:00,VALID,916.886,VALID,0,VALID,100,VALID,0,VALID,18.6188,VALID,134,VALID,0.863467,
2004-09-06, 02:56:00,VALID,916.875,VALID,0,VALID,100,VALID,0.0169808,VALID,18.6034,VALID,129,VALID,1.08822,
2004-09-06, 02:57:00,VALID,916.857,VALID,0,VALID,100,VALID,0,VALID,18.5704,VALID,132,VALID,0.701079,
2004-09-06, 02:58:00,VALID,916.847,VALID,0,VALID,100,VALID,-0.0169808,VALID,18.5411,VALID,105,VALID,0.949491,
2004-09-06, 02:59:00,VALID,916.843,VALID,0,VALID,100,VALID,-0.0169808,VALID,18.5316,VALID,104,VALID,0.944767,
2004-09-06, 03:00:00,VALID,916.836,VALID,0,VALID,100,VALID,0,VALID,18.483,VALID,96,VALID,0.824886,
2004-09-06, 03:01:00,VALID,916.823,VALID,0,VALID,100,VALID,0,VALID,18.4701,VALID,123,VALID,0.85597,
2004-09-06, 03:02:00,VALID,916.829,VALID,0,VALID,100,VALID,0,VALID,18.4765,VALID,94,VALID,0.620094,
2004-09-06, 03:03:00,VALID,916.807,VALID,0,VALID,100,VALID,0,VALID,18.4567,VALID,92,VALID,0.695845,
2004-09-06, 03:04:00,VALID,916.806,VALID,0,VALID,100,VALID,0.0169808,VALID,18.4832,VALID,108,VALID,1.06827,
2004-09-06, 03:05:00,VALID,916.811,VALID,0,VALID,100,VALID,0,VALID,18.4701,VALID,116,VALID,0.763247,
2004-09-06, 03:06:00,VALID,916.812,VALID,0,VALID,100,VALID,0.0339617,VALID,18.4639,VALID,97,VALID,0.76835,
2004-09-06, 03:07:00,VALID,916.821,VALID,0,VALID,100,VALID,-0.0169808,VALID,18.4217,VALID,70,VALID,0.584872,
2004-09-06, 03:08:00,VALID,916.824,VALID,0,VALID,100,VALID,0,VALID,18.3702,VALID,74,VALID,0.654535,
2004-09-06, 03:09:00,VALID,916.829,VALID,0,VALID,100,VALID,0.0339617,VALID,18.335,VALID,61,VALID,0.938743,
2004-09-06, 03:10:00,VALID,916.829,VALID,0,VALID,100,VALID,0,VALID,18.2831,VALID,59,VALID,0.876817,
2004-09-06, 03:11:00,VALID,916.85,VALID,0,VALID,100,VALID,0.0169808,VALID,18.1925,VALID,67,VALID,0.541371,
2004-09-06, 03:12:00,VALID,916.847,VALID,0,VALID,100,VALID,0.0339617,VALID,18.151,VALID,84,VALID,0.71875,
2004-09-06, 03:13:00,VALID,916.856,VALID,0,VALID,100,VALID,0,VALID,18.1477,VALID,82,VALID,0.896802,
2004-09-06, 03:14:00,VALID,916.847,VALID,0,VALID,100,VALID,0,VALID,18.18,VALID,71,VALID,0.753239,
2004-09-06, 03:15:00,VALID,916.837,VALID,0,VALID,100,VALID,-0.0169808,VALID,18.1932,VALID,80,VALID,0.632102,
2004-09-06, 03:16:00,VALID,916.832,VALID,0,VALID,100,VALID,-0.0169808,VALID,18.1477,VALID,68,VALID,0.714571,
2004-09-06, 03:17:00,VALID,916.836,VALID,0,VALID,100,VALID,0,VALID,18.1055,VALID,86,VALID,0.798692,
2004-09-06, 03:18:00,VALID,916.829,VALID,0,VALID,100,VALID,0,VALID,18.1284,VALID,74,VALID,0.576265,
2004-09-06, 03:19:00,VALID,916.81,VALID,0,VALID,100,VALID,-0.0339617,VALID,18.1155,VALID,95,VALID,0.543527,
2004-09-06, 03:20:00,VALID,916.817,VALID,0,VALID,100,VALID,0,VALID,18.1346,VALID,77,VALID,0.518576,
2004-09-06, 03:21:00,VALID,916.794,VALID,0,VALID,100,VALID,0,VALID,18.1185,VALID,65,VALID,0.526811,
2004-09-06, 03:22:00,VALID,916.798,VALID,0,VALID,100,VALID,0.0169808,VALID,18.0668,VALID,47,VALID,0.547447,
2004-09-06, 03:23:00,VALID,916.8,VALID,0,VALID,100,VALID,0,VALID,18.0405,VALID,47,VALID,0.541941,
2004-09-06, 03:24:00,VALID,916.79,VALID,0,VALID,100,VALID,0,VALID,18.035,VALID,46,VALID,0.459821,
2004-09-06, 03:25:00,VALID,916.798,VALID,0,VALID,100,VALID,-0.0339617,VALID,18.0096,VALID,46,VALID,0.480824,
2004-09-06, 03:26:00,VALID,916.804,VALID,0,VALID,100,VALID,-0.101885,VALID,18.0105,VALID,46,VALID,0.489583,
2004-09-06, 03:27:00,VALID,916.811,VALID,0,VALID,100,VALID,-0.0849042,VALID,17.9812,VALID,46,VALID,0.657203,
2004-09-06, 03:28:00,VALID,916.828,VALID,0,VALID,100,VALID,-0.0849042,VALID,17.9623,VALID,49,VALID,0.8643,
2004-09-06, 03:29:00,VALID,916.823,VALID,0,VALID,100,VALID,-0.101885,VALID,17.9496,VALID,49,VALID,1.02023,
2004-09-06, 03:30:00,VALID,916.823,VALID,0,VALID,100,VALID,-0.0849042,VALID,17.9651,VALID,49,VALID,0.997713,
2004-09-06, 03:31:00,VALID,916.825,VALID,0,VALID,100,VALID,-0.0849042,VALID,17.9718,VALID,49,VALID,0.967882,
2004-09-06, 03:32:00,VALID,916.819,VALID,0,VALID,100,VALID,-0.101885,VALID,17.9686,VALID,67,VALID,0.91061,
2004-09-06, 03:33:00,VALID,916.817,VALID,0,VALID,100,VALID,-0.101885,VALID,17.9978,VALID,93,VALID,0.882622,
2004-09-06, 03:34:00,VALID,916.814,VALID,0,VALID,100,VALID,-0.101885,VALID,18.017,VALID,83,VALID,0.838034,
2004-09-06, 03:35:00,VALID,916.814,VALID,0,VALID,100,VALID,-0.101885,VALID,18.0204,VALID,87,VALID,0.62843,
2004-09-06, 03:36:00,VALID,916.804,VALID,0,VALID,100,VALID,-0.118866,VALID,17.9942,VALID,80,VALID,0.599019,
2004-09-06, 03:37:00,VALID,916.814,VALID,0,VALID,100,VALID,-0.152827,VALID,17.9791,VALID,97,VALID,0.527435,
2004-09-06, 03:38:00,VALID,916.813,VALID,0,VALID,100,VALID,-0.101885,VALID,17.9522,VALID,107,VALID,0.751202,
2004-09-06, 03:39:00,VALID,916.831,VALID,0,VALID,100,VALID,-0.118866,VALID,17.9432,VALID,67,VALID,0.701823,
2004-09-06, 03:40:00,VALID,916.839,VALID,0,VALID,100,VALID,0,VALID,17.9158,VALID,54,VALID,1.07758,
2004-09-06, 03:41:00,VALID,916.856,VALID,0,VALID,100,VALID,-0.0509425,VALID,17.8706,VALID,65,VALID,1.11607,
2004-09-06, 03:42:00,VALID,916.877,VALID,0,VALID,100,VALID,-0.0169808,VALID,17.871,VALID,82,VALID,1.17541,
2004-09-06, 03:43:00,VALID,916.873,VALID,0,VALID,100,VALID,-0.0169808,VALID,17.9225,VALID,73,VALID,1.125,
2004-09-06, 03:44:00,VALID,916.869,VALID,0,VALID,100,VALID,-0.0169808,VALID,17.9255,VALID,54,VALID,0.948475,
2004-09-06, 03:45:00,VALID,916.878,VALID,0,VALID,100,VALID,0,VALID,17.9354,VALID,67,VALID,0.891226,
2004-09-06, 03:46:00,VALID,916.896,VALID,0,VALID,100,VALID,0,VALID,17.9321,VALID,67,VALID,1.08647,